Regional Weather Roundup
Issued by NWS Charleston, SC

Current Version | Previous Version | Text Only | Print | Product List | Glossary Off
Versions: 1 2 3 4 5 6 7 8 9 10 11 12 13 14 15 16 17 18 19 20 21 22 23 24 25 26 27 28 29 30 31 32 33 34 35 36 37 38 39 40 41 42 43 44 45 46 47 48 49 50

000
ASUS42 KCHS 281012
RWRCHS

REGIONAL WEATHER ROUNDUP
NATIONAL WEATHER SERVICE CHARLESTON SC
600 AM EDT THU MAY 28 2015

NOTE: "FAIR" INDICATES FEW OR NO CLOUDS BELOW 12,000 FEET WITH NO
SIGNIFICANT WEATHER AND/OR OBSTRUCTIONS TO VISIBILITY.

NOT ALL STATIONS ARE QUALITY CONTROLLED BY THE NATIONAL
WEATHER SERVICE. USE DATA WITH CAUTION...ESPECIALLY
DEWPOINT OBSERVATIONS.

SCZ027-030-031-034>040-042>050-281100-
...SOUTHEAST SOUTH CAROLINA...

CITY           SKY/WX    TMP DP  RH WIND       PRES   REMARKS
N CHARLESTON   PTCLDY    68  66  93 CALM      30.19R
WATERFRONT PAR   N/A     73  70  90 CALM      30.16R
MOUNT PLEASANT LGT RAIN  66  66 100 CALM      30.19S
JOHNS ISLAND   SUNNY     68  66  94 CALM      30.19R
PINOPOLIS        N/A     72  66  83 VRB3      30.10F
MONCKS CORNER  FAIR      66  63  88 CALM      30.19R FOG
SUMMERVILLE    FAIR      64  64 100 CALM      30.20R
BEAUFORT MCAS  PTCLDY    68  67  96 CALM      30.18R
BEAUFORT ARPT  FAIR      70  70 100 CALM      30.17S
HILTON HEAD IS NOT AVBL
WALTERBORO     SUNNY     63  61  94 CALM      30.20R
ALLENDALE      FAIR      66  64  94 CALM      30.18S FOG

...SOUTHERN MIDLANDS AND PEE DEE...

CITY           SKY/WX    TMP DP  RH WIND       PRES   REMARKS
GEORGETOWN     NOT AVBL
KINGSTREE      NOT AVBL
ORANGEBURG     CLEAR     64  62  93 CALM      30.19S
BARNWELL       FAIR      64  64 100 CALM      30.20R
AIKEN          PTSUNNY   68  63  83 CALM      30.23S
MANNING        FAIR      63  61  94 CALM      30.20R
COLUMBIA       PTCLDY    67  64  90 CALM      30.19R
SUMTER         PTCLDY    67  66  96 CALM      30.18S FOG
FLORENCE       CLEAR     68  66  93 CALM      30.20R
MYRTLE BEACH   PTCLDY    72  63  73 SE6       30.22S
N MYRTLE BEACH PTCLDY    73  63  70 SE5       30.20R

$$

GAZ063-065-086>088-099>101-113>116-118-119-134>141-150-281100-
...SOUTHEAST GEORGIA...

CITY           SKY/WX    TMP DP  RH WIND       PRES   REMARKS
SAVANNAH ARPT  PTCLDY    65  64  97 CALM      30.18R
HUNTER AAF     CLEAR     66  66 100 E1        30.15S
FORT STEWART   CLEAR     64  62  93 CALM      30.15S
STATESBORO     CLEAR     63  32  31 CALM      30.19R
SYLVANIA       SUNNY     64  64 100 CALM      30.19S
CLAXTON        FAIR      61  61 100 CALM      30.18R

...CSRA...CENTRAL AND FAR SOUTHEAST GEORGIA...

CITY           SKY/WX    TMP DP  RH WIND       PRES   REMARKS
THOMSON        PTCLDY    70  70 100 CALM      30.23R
AUGUSTA-BUSH   CLOUDY    68  66  93 CALM      30.18R
AUGUSTA-DANIEL CLOUDY    73  66  78 CALM      30.20R
SWAINSBORO     FAIR     N/A N/A N/A CALM      30.19S
VIDALIA        PTCLDY    66  64  94 CALM      30.18R
EASTMAN        FAIR      66  66 100 CALM      30.19S FOG
HAZLEHURST     FAIR      67  67 100 CALM      30.16S
ALMA           CLEAR     64  63  96 CALM      30.16S FOG
WAYCROSS       CLEAR     65  65 100 CALM      30.16S
JESUP          FAIR      66  64  94 CALM      30.17R
BAXLEY         FAIR      68  64  88 CALM      30.17R
BRUNSWICK        N/A     64  63  94 CALM      30.16S
SAINT SIMONS   NOT AVBL

$$

SCZ027-028-034-036>038-045-046-048>050-GAZ119-141-281100-
...LAKE AND SUPPLEMENTAL COASTAL OBSERVATIONS...

STATION/POSITION TIME  TEMP    WIND        PRES    WAVE   SWELL
                       AIR SEA DIR/SP/G            HT/PER HT/PER/DIR
                 (UTC) (F)     (DEG/KT/KT) (MB)    (FT/S) (FT/S/D)
UPR LAKE MARION  NOT AVBL
WINYAH BAY       NOT AVBL
LAKE MURRAY      0900   73     200/  6/  8 1021.7R
ACE BASIN NERRS  NOT AVBL
FORT PULASKI     0900   74 79  120/  2/  2 1022.0R
SAPELO ISLAND    0900   67     100/  1     1021.0S

$$

ANZ835-935-AMZ111-154-330-350-352-354-370-450-454-472-281100-
...C-MAN AND BUOY OBSERVATIONS...

STATION/POSITION TIME  TEMP    WIND        PRES    WAVE   SWELL
                       AIR SEA DIR/SP/G            HT/PER HT/PER/DIR
                 (UTC) (F)     (DEG/KT/KT) (MB)    (FT/S) (FT/S/D)
BUOY 41004       0950   75 78   80/  8/ 10 1021.7R   3/ 8   3/ 8
BUOY 41008       0950   77 78  110/  6/  8 1021.4S   3/ 8   3/100/ 8
FOLLY BEACH CMAN 1000   76      90/  4/  5 1022.3R
CAPERS NEARSHORE 0908   76     120/  8/ 12 1021.9R
FRIPP NEARSHORE  0900   76      CALM  /  2 1021.3R


STATION/POSITION TIME  TEMP    WIND        PRES    WAVE   SWELL
                       AIR SEA DIR/SP/G            HT/PER HT/PER/DIR
                 (UTC) (F)     (DEG/KT/KT) (MB)    (FT/S) (FT/S/D)
5E ST. MARYS GA  0921      79                N/A     3/ 8
FRYING PAN BUOY  0950   75 75  120/  6/  8 1023.5R   3/ 7   3/130/ 7
BUOY 41025       0950   74 77  180/ 10/ 12 1024.0R   3/ 7   2/110/ 7
CAPE LOOKOUT NC  1000   73     130/  5/  5 1023.5R
BUOY 41002       0950   73 74   80/ 10/ 12 1023.1R   5/ 8   5/100/ 8
BUOY 41010       0920   76 80   80/ 14/ 17 1020.1S
ST AUGUSTINE FL  1000   76 78  100/ 12/ 13 1021.2R


$$


USA.gov is the U.S. government's official web portal to all federal, state and local government web resources and services.